Simultaneous Nadir Overpasses (SNOs) Predictions

Prediction of SNOs between LANDSAT-8 and METOP-B Satellite Orbit:

Table of predicted SNOs for the next 14.0 days since TLE Epoch: 12/10/2022
Index Date (LANDSAT-8) Time (LANDSAT-8) Lat,Lon (LANDSAT-8) SZA (LANDSAT-8 ) Date (METOP-B) Time (METOP-B) Lat,Lon (METOP-B) SZA (METOP-B ) Distance(km) Time Diff (sec)
1 12/12/2022 10:24:59 81.11, 63.44 106.26 12/12/2022 10:24:30 81.11, 63.44 106.25 0.30 29
2 12/12/2022 11:14:25 -81.13,-128.63 73.70 12/12/2022 11:15:09 -81.14,-128.56 73.67 1.54 44
3 12/15/2022 05:59:12 81.12, 130.08 106.43 12/15/2022 05:58:53 81.12, 130.14 106.43 0.90 19
4 12/15/2022 06:48:38 -81.14, -61.97 73.53 12/15/2022 06:49:32 -81.15, -61.84 73.49 2.16 54
5 12/18/2022 01:33:25 81.13,-163.42 106.52 12/18/2022 01:33:17 81.12,-163.60 106.49 3.32 8
6 12/18/2022 02:22:51 -81.15, 4.56 73.44 12/18/2022 02:23:56 -81.14, 4.43 73.43 2.28 65
7 12/20/2022 20:18:12 -81.10, 94.94 73.53 12/20/2022 20:17:00 -81.10, 95.01 73.55 1.38 72
8 12/20/2022 21:07:37 81.12, -97.05 106.53 12/20/2022 21:07:39 81.12, -97.02 106.53 0.63 2
9 12/20/2022 21:56:24 -81.77, 86.40 71.36 12/20/2022 21:57:38 -81.32, 86.61 71.56 49.39 74
10 12/23/2022 15:52:24 -81.11, 161.55 73.55 12/23/2022 15:51:23 -81.11, 161.55 73.57 0.23 61



Historial Predications of SNOs between LANDSAT-8 and METOP-B
